Location: Bathurst
(33.4193°S, 149.5775°E)
Time: 21:38:36
(UTC+10:00)

Vanguard 3 - Pass Details

Date: 23 June 2021
Orbit: 508 x 3261 km, 33.4° (Epoch: 25 July)

Event Time Altitude Azimuth Distance (km) Brightness Sun altitude
Rises 19:25:35 0° 274° (W) 6,714 13.0 -29.1°
Reaches altitude 10° 19:29:42 10° 274° (W) 5,907 12.4 -29.9°
Maximum altitude 19:49:42 90° 171° (S) 3,213 9.9 -34.0°
Enters shadow 19:55:59 55° 90° (E) 3,473 9.8 -35.3°
